Starlink 3936

operational
NORAD ID: 52674 Int'l Des: 2022-053 Owner: SPXS Country: US Constellation: starlink
LEOCIRCULAR

About Starlink 3936

Description loading...

Live Position

Loading 3D Globe...

Upcoming Passes

Altitude History

Altitude vs Time

uPlot chart will show altitude changes over time

Two-Line Element Set

1 52674U 22053U 25257.31967556 -.00000196 00000-0 57579-5 0 9994
2 52674 53.2157 225.8769 0001441 89.3968 270.7189 15.08839104184423
Epoch: Sep 14, 2025 • Age: 23 hours

Current Status

Altitude 551.2 km
Velocity 7.59 km/s
Sub-Earth Point -34.15°S, 26.45°W
Launch Date May 18, 2022
Age 3.3 years
Type internet

Technical Details

Classification Payload
Mass 297.00 kg
Dry Mass 275.00 kg
Total Mass 297.00 kg
Length 0.20 m
Diameter 2.80 m
Span 9.00 m
Shape Box + pan
Manufacturer SPXS
Bus Type Starlink
Phase Status In Orbit
Owner/State SPXS/US

Large Constellations

Loading constellations...